Location: Brad
(46.1333°N, 22.7833°E)
Time: 13:06:39
(UTC+00:00)

IRIDIUM 106 - Visible Passes

Search period start: 25 September 2023 00:00
Search period end: 05 October 2023 00:00
Orbit: 776 x 779 km, 86.4° (Epoch: 25 September)

Date Brightness Start Highest point End Pass type
(mag) Time Alt. Az. Time Alt. Az. Time Alt. Az.
25 Sep 5.4 19:12:05 10° N 19:15:14 36° NNE 19:15:14 36° NNE visible
25 Sep 6.9 20:54:05 10° NW 20:55:43 15° NW 20:55:43 15° NW visible
26 Sep 5.5 18:38:47 10° NNE 18:41:52 29° NE 18:41:52 29° NE visible
26 Sep 6.4 20:19:44 10° NNW 20:22:21 24° NW 20:22:21 24° NW visible
27 Sep 5.8 18:05:50 10° NNE 18:08:31 20° NE 18:08:31 20° NE visible
27 Sep 5.7 19:45:48 10° NNW 19:48:59 35° NNW 19:48:59 35° NNW visible
28 Sep 6.2 17:33:41 10° NE 17:35:11 12° ENE 17:35:11 12° ENE visible
28 Sep 5.2 19:12:09 10° N 19:15:39 43° N 19:15:39 43° N visible
28 Sep 7.2 20:55:14 10° NW 20:56:07 12° WNW 20:56:07 12° WNW visible
29 Sep 5.1 18:38:43 10° N 18:42:19 39° NE 18:42:19 39° NE visible
29 Sep 6.6 20:20:15 10° NNW 20:22:48 20° WNW 20:22:48 20° WNW visible
30 Sep 5.4 18:05:32 10° NNE 18:09:00 27° NE 18:09:00 27° NE visible
30 Sep 5.9 19:46:06 10° NNW 19:49:29 31° NW 19:49:29 31° NW visible
01 Oct 5.9 17:32:47 10° NNE 17:35:42 17° ENE 17:35:42 17° ENE visible
01 Oct 5.1 19:12:17 10° N 19:16:11 48° NNW 19:16:11 48° NNW visible
02 Oct 4.6 18:38:43 10° N 18:42:54 55° NNE 18:42:54 55° NNE visible
02 Oct 6.9 20:21:02 10° NW 20:23:23 15° WNW 20:23:23 15° WNW visible
03 Oct 4.9 18:05:22 10° N 18:09:39 39° ENE 18:09:39 39° ENE visible
03 Oct 6.2 19:46:31 10° NNW 19:50:08 26° WNW 19:50:08 26° WNW visible
04 Oct 5.4 17:32:20 10° NNE 17:36:25 24° ENE 17:36:25 24° ENE visible
04 Oct 5.3 19:12:31 10° NNW 19:16:54 44° WNW 19:16:54 44° WNW visible
